www.pogodaiklimat.ru

Погода и климат >> Архив погоды >> Россия >> Приморский край >> Партизанск


ПОГОДА в Партизанске

  • Прогноз погоды в Партизанске
  • Монитор погоды в Партизанске
  • Климат города

АРХИВ ПОГОДЫ в Партизанске

Время (UTC), дата Ветер
(напр.,м/с)
 
Видим.   Явления Облачность Т
(С)
Тd
(С)
f
(%)
Тe
(С)
Тes
(С)
Комфортность P
(гПа)
Po
(гПа)
Тmin
(С)
Tmax
(С)
R
(мм)
R24
(мм)
S
(см)
15 17.06 Ю 2 4000 м дымка 10/10 300 м
[St]
+13.4 +12.0 91 +13 +13 1012.5 987.9
18 17.06 ЮЗ 2 4000 м дымка 10/10 300 м
[St]
+13.2 +11.8 91 +12 +12 1011.9 987.4
21 17.06 ЮВ 2 500 м туман ?/? +13.3 +11.9 91 +13 +13 1011.6 987.1 +13.0
00 18.06 Ю 1 4000 м дымка {туман} 10/10 300 м
[St]
+14.1 +12.7 91 +14 +14 1011.5 987.0
03 18.06 Ю 5 4000 м слабая морось 10/10 300 м
[St]
+14.8 +13.4 91 +13 +13 1011.1 986.8
06 18.06 Ю 4
{11}
20 км {морось} 10/10 300 м
[St]
+15.0 +12.9 87 +14 +14 1010.0 985.7
09 18.06 Ю 3 4000 м слабая морось 10/10 300 м
[St]
+14.4 +12.8 90 +13 +13 1009.8 985.4 +15.4 0.5
12 18.06 штиль 0 500 м слабая морось {туман} туман ?/? +13.6 +12.2 91 +13 +13 1009.4 984.9
15 18.06 Ю 1 500 м слабая морось {туман} туман ?/? +13.8 +12.4 91 +14 +14 1010.6 986.2
18 18.06 С 4 500 м туман {морось} ?/? +14.0 +12.7 92 +12 +12 1011.2 986.8
21 18.06 С 1 50 км {туман} 9/0
[Ac trans]
+14.5 +13.1 91 +15 +16 1009.8 985.4 +13.5 0.1
00 19.06 Ю 4 20 км {туман} 10/8 300 м
[St As op]
+16.9 +14.1 84 +16 +17 1010.0 985.8
03 19.06 Ю 4 50 км 10/8 600 м
[Sc Ac lent Cs]
+19.8 +15.5 76 +22 +23 комфорт 1009.2 985.3
06 19.06 ЮЗ 5 50 км 10/6 600 м
[Sc Cs]
+20.9 +16.3 75 +24 +27 комфорт 1007.9 984.1
09 19.06 Ю 4 50 км 10/8 600 м
[St Ac As]
+16.6 +14.1 85 +16 +16 1008.5 984.3 +21.1
12 19.06 Ю 2 50 км 10/10 600 м
[St]
+15.4 +13.5 88 +15 +15 1009.6 985.3
15 19.06 штиль 0 4000 м дымка 10/10 300 м
[St]
+14.7 +13.1 90 +14 +14 1008.7 984.4
18 19.06 Ю 1 1000 м дымка 10/10 300 м
[St]
+14.0 +12.6 91 +14 +14 1008.9 984.5
21 19.06 штиль 0 500 м слабая морось {туман} туман ?/? +14.6 +13.2 91 +14 +14 1009.0 984.6 +14.0 0.0
00 20.06 Ю 1 500 м слабая морось {туман} туман ?/? +15.8 +14.4 91 +16 +16 1008.8 984.6
03 20.06 Ю 5 20 км {морось, туман} 10/10 600 м
[St]
+18.6 +15.2 81 +19 +19 1008.5 984.5
06 20.06 Ю 6
{10}
20 км {морось, туман} 10/4 600 м
[Cu Sc Cs]
+19.3 +15.1 77 +20 +23 1007.7 983.8
09 20.06 Ю 5 50 км 10/5 600 м
[St Ac lent Ci fib]
+17.9 +14.2 79 +17 +18 1007.5 983.5 +20.2 0.0
12 20.06 ЮЗ 3 50 км 10/8 600 м
[Sc Ci fib]
+15.9 +12.1 78 +15 +15 1007.5 984.8
15 20.06 ЮЗ 4 50 км 10/10 600 м
[Sc]
+16.1 +12.4 79 +15 +15 1009.1 984.9
18 20.06 ЮЗ 3 50 км 10/10 600 м
[Sc]
+15.2 +12.3 83 +14 +14 1008.1 983.8
21 20.06 СВ 1 4000 м дымка 10/10 300 м
[St]
+13.8 +11.6 87 +14 +14 1008.4 983.9 +14.2
00 21.06 Ю 3 50 км 10/1 600 м
[Cu hum As trans]
+17.0 +13.2 78 +17 +20 1007.8 983.7 +13.8
03 21.06 Ю 3 50 км 10/1 600 м
[Cu hum Cs]
+20.5 +14.0 66 +23 +35 комфорт 1006.5 982.7
06 21.06 ЮЗ 4 50 км 10/6 600 м
[Cu Sc Ac As]
+17.4 +12.5 73 +17 +18 1005.6 981.6
09 21.06 Ю 3 50 км 10/4 600 м
[Cu hum Cs]
+17.9 +12.2 69 +18 +19 1004.5 980.5 +20.6
12 21.06 Ю 2 50 км 9/0
[Ac trans]
+14.1 +11.9 87 +14 +14 1006.1 981.8
15 21.06 Ю 1 50 км 10/10 300 м
[St]
+11.9 +10.0 88 +12 +12 1006.9 982.3
18 21.06 штиль 0 4000 м дымка 10/10 300 м
[St]
+11.5 +10.0 90 +11 +11 1006.5 981.9
21 21.06 В 1 500 м туман ?/? +11.3 +9.9 91 +11 +11 1007.5 982.9 +11.2
00 22.06 СВ 2 50 км {туман} 10/8 600 м
[St Cs]
+16.0 +12.0 77 +16 +18 1006.7 982.6
03 22.06 СВ 2 50 км 1/1 1000 м
[Cu hum]
+23.8 +15.5 60 +27 +45 жарко 1004.5 981.0
06 22.06 С 1 50 км 8/6 600 м
[Cb calv Ac cuf Ci ing]
+25.7 +15.1 52 +29 +33 душно 1003.6 980.3
09 22.06 Ю 1 50 км 9/5 600 м
[Sc Ac As Ci sp]
+21.4 +16.9 76 +25 +26 комфорт 1004.6 981.0 +27.1
12 22.06 Ю 1 50 км 3/0
[Ac trans]
+16.2 +14.2 88 +17 +17 1006.6 982.4
15 22.06 СВ 3 50 км ясно +15.4 +13.5 88 +15 +15 1007.4 983.2
18 22.06 С 2 50 км ясно +14.8 +12.8 88 +14 +14 1007.2 982.9
21 22.06 С 1 50 км ясно +15.8 +13.4 86 +16 +18 1007.6 983.4 +13.7
00 23.06 СВ 1 50 км ясно +23.8 +16.3 63 +27 +41 жарко 1006.8 983.3
03 23.06 Ю 2 50 км 1/1 1000 м
[Cu med, cong]
+28.7 +15.6 45 +32 +49 душно 1005.1 982.0
06 23.06 Ю 5 50 км 1/1 1000 м
[Cu med, cong]
+27.9 +16.8 51 +32 +38 душно 1004.0 980.9
09 23.06 Ю 4 50 км 3/1 600 м
[Sc diur, vesp Ac cuf]
+25.6 +16.4 57 +29 +30 душно 1003.7 980.4 +30.0
12 23.06 Ю 1 50 км 1/0
[Ci fib]
+17.9 +14.4 80 +19 +19 1006.1 982.1
15 23.06 штиль 0 50 км ясно +16.8 +13.9 83 +17 +17 1005.7 981.7
18 23.06 С 2 50 км ясно +15.7 +13.7 88 +16 +16 1005.3 981.1
21 23.06 штиль 0 50 км 1/0
[Ci fib]
+15.5 +13.5 88 +15 +17 1005.0 980.8 +14.1
00 24.06 В 1 50 км 5/0
[Ci fib]
+24.7 +17.2 63 +29 +41 душно 1003.4 980.0
03 24.06 Ю 4 50 км 10/1 1000 м
[Cu med, cong Ci]
+29.7 +18.7 52 +35 +45 очень
душно
1001.5 978.5
06 24.06 Ю 4 50 км 8/3 1000 м
[Cu med, cong Ci fib]
+29.4 +18.9 53 +35 +40 очень
душно
999.8 976.9
09 24.06 Ю 6
{10}
50 км гроза без осадков 10/5 1000 м
[Cb calv Ac As Ci fib]
+20.7 +15.2 71 +24 +24 комфорт 1001.4 977.7 +30.2
12 24.06 Ю 2 50 км гроза без осадков {ливн. осадки} 10/5 600 м
[Cb calv Ac As Ci fib]
+15.8 +13.7 87 +16 +16 1004.2 980.1

 

Местоположение метеостанции Партизанск (Приморский край, Россия): широта 43.15 долгота 133.00 высота над уровнем моря 208 м.

В архиве по умолчанию представлена погода в Партизанске за последнюю неделю. Архивные данные за месяц целиком и за предыдущие месяцы, начиная с января 2011 года, Вы можете получить, выбрав интересующий диапазон дат из раскрывающегося списка и нажав кнопку "Ввод!".

Внимание! Время в таблицах - всемирное. Для получения местного времени необходимо прибавить поправку, которая в Партизанске равна 10 ч.

Смотрите также архив погоды в соседних городах и на ближайших метеорологических станциях:

Погода в Находке (Приморский край, Россия) (42 км)
Погода в Лазо (Приморский край, Россия) (71 км)
Погода в Преображении (Приморский край, Россия) (78 км)
Погода в Владивостоке (Приморский край, Россия) (89 км)
Погода в Анучино (Приморский край, Россия) (91 км)
Погода в Тимирязевском (Приморский край, Россия) (120 км)
Погода в Чугуевке (Приморский край, Россия) (129 км)
Погода в Барабаше (Приморский край, Россия) (130 км)
Погода в Гамове (Приморский край, Россия) (160 км)
Погода в Хороль (Приморский край, Россия) (163 км)

Пояснения к столбцам:

Ветер - указаны скорость ветра в м/с - средняя за 10 мин, порывы в срок и между сроками (в фигурных скобках) и направление, откуда дует ветер: С - северный, СВ - северо-восточный, В - восточный, ЮВ - юго-восточный, Ю - южный, ЮЗ - юго-западный, З - западный, СЗ - северо-западный.
Видимость - горизонтальная дальность видимости в метрах или километрах. При видимости от 1 до 10 км при отсутствии осадков обычно наблюдается дымка, при ухудшении видимости до 1 км и менее - туман. В сухую погоду видимость может ухудшаться дымом, пылью или мглою.
Явления - указаны атмосферные явления, наблюдавшиеся в срок или в последний час перед сроком; фигурными скобками обозначены явления, наблюдавшиеся между сроками (за 1-3 часа до срока); квадратными скобками обозначены град или гололедные отложения с указанием их диаметра в мм.
Облачность - указаны через наклонную черту общая и нижняя облачность в баллах и высота нижней границы облаков в метрах; квадратными скобками обозначены формы облаков: Ci - перистые, Cs - перисто-слоистые, Cc - перисто-кучевые, Ac - высококучевые, As - высокослоистые, Sc - слоисто-кучевые, Ns - слоисто-дождевые, Cu - кучевые, Cb - кучево-дождевые. Подробнее классификацию облаков см. в Атласе облаков (PDF).
T - Температура воздуха - температура, измеренная на высоте 2 м над землей.
Td - Температура точки росы - температура, при понижении до которой содержащийся в воздухе водяной пар достигнет насыщения.
f - Относительная влажность воздуха - влажноcть воздуха, измеренная на высоте 2 м над землей.
Te - Эффективная температура - температура, которую ощущает одетый по сезону человек в тени. Характеристика душности погоды. При расчете учитывается влияние влажности воздуха и скорости ветра на теплоощущения человека.
Tes - Эффективная температура на солнце - температура, которую ощущает человек, с поправкой на солнечный нагрев. Характеристика знойности погоды. Зависит от высоты солнца над горизонтом, облачности и скорости ветра. Ночью, в пасмурную погоду, а также при ветре 12 м/с и более поправка равна нулю.
P - Атмосферное давление - приведенное к уровню моря атмосферное давление.
Po - Атмосферное давление - измеренное на уровне метеостанции атмосферное давление.
Tmin - Минимальная температура - минимум температуры воздуха на высоте 2 м над землей.
Tmax - Максимальная температура - максимум температуры воздуха на высоте 2 м над землей.
R - Количество осадков - Количество выпавших осадков за период времени, мм. При наведении курсора мыши на число - период времени, за который выпало указанное количество осадков.
R24 - Количество осадков - Количество выпавших осадков за 24 часа, мм.
S - Снежный покров - Высота снежного покрова, см. При наведении курсора мыши на число - состояние снежного покрова и степень покрытия местности в баллах.